Time,TemperatureF,DewpointF,PressureIn,WindDirection,WindDirectionDegrees,WindSpeedMPH,WindSpeedGustMPH,Humidity,HourlyPrecipIn,Conditions,Clouds,dailyrainin,SoftwareType,DateUTC
2013-07-15 00:11:00,65.0,65.0,-100.00,WNW,290,0.0,1.0,99,0.00,,,-99.99,,2013-07-15 05:11:00,
2013-07-15 00:32:00,65.0,65.0,-100.00,NNW,340,1.0,2.0,99,0.00,,,-99.99,,2013-07-15 05:32:00,
2013-07-15 00:43:00,64.0,-99.9,-100.00,NW,320,4.0,4.0,-999,0.00,,,-99.99,,2013-07-15 05:43:00,
2013-07-15 01:02:00,64.0,-99.9,-100.00,NW,320,4.0,4.0,-999,0.00,,,-99.99,,2013-07-15 06:02:00,
2013-07-15 01:22:00,65.0,65.0,-100.00,NW,305,1.0,3.0,99,0.00,,,-99.99,,2013-07-15 06:22:00,
2013-07-15 01:32:00,64.0,64.0,-100.00,NNW,335,4.0,4.0,99,0.00,,,-99.99,,2013-07-15 06:32:00,
2013-07-15 01:42:00,65.0,65.0,-100.00,NNE,20,0.0,1.0,99,0.00,,,-99.99,,2013-07-15 06:42:00,
2013-07-15 02:01:00,65.0,65.0,-100.00,NNE,20,0.0,1.0,99,0.00,,,-99.99,,2013-07-15 07:01:00,
2013-07-15 02:11:00,64.0,64.0,-100.00,NNW,340,1.0,2.0,99,0.00,,,-99.99,,2013-07-15 07:11:00,
2013-07-15 02:33:00,64.0,64.0,-100.00,NNW,345,0.0,1.0,99,0.00,,,-99.99,,2013-07-15 07:33:00,
2013-07-15 02:44:00,64.0,64.0,-100.00,North,350,2.0,3.0,99,0.00,,,-99.99,,2013-07-15 07:44:00,
2013-07-15 02:53:00,64.0,64.0,-100.00,NW,315,4.0,5.0,99,0.00,,,-99.99,,2013-07-15 07:53:00,
2013-07-15 03:11:00,64.0,64.0,-100.00,NW,325,2.0,5.0,99,0.00,,,-99.99,,2013-07-15 08:11:00,
2013-07-15 03:32:00,64.0,64.0,-100.00,WNW,290,1.0,1.0,99,0.00,,,-99.99,,2013-07-15 08:32:00,
2013-07-15 03:43:00,64.0,64.0,-100.00,WNW,290,1.0,1.0,99,0.00,,,-99.99,,2013-07-15 08:43:00,
2013-07-15 04:01:00,64.0,64.0,-100.00,WNW,290,1.0,1.0,99,0.00,,,-99.99,,2013-07-15 09:01:00,
2013-07-15 04:32:00,63.0,63.0,-100.00,NW,305,3.0,4.0,99,0.00,,,-99.99,,2013-07-15 09:32:00,
2013-07-15 04:43:00,63.0,63.0,-100.00,NNW,335,2.0,4.0,99,0.00,,,-99.99,,2013-07-15 09:43:00,
2013-07-15 05:11:00,63.0,63.0,-100.00,North,355,2.0,4.0,99,0.00,,,-99.99,,2013-07-15 10:11:00,
2013-07-15 05:32:00,63.0,63.0,-100.00,NNW,340,1.0,4.0,99,0.00,,,-99.99,,2013-07-15 10:32:00,
2013-07-15 05:43:00,63.0,63.0,-100.00,NNW,340,1.0,4.0,99,0.00,,,-99.99,,2013-07-15 10:43:00,
2013-07-15 05:53:00,63.0,63.0,-100.00,NNW,340,3.0,4.0,99,0.00,,,-99.99,,2013-07-15 10:53:00,
2013-07-15 06:11:00,63.0,63.0,-100.00,NNW,345,3.0,3.0,99,0.00,,,-99.99,,2013-07-15 11:11:00,
2013-07-15 06:32:00,63.0,63.0,-100.00,North,5,2.0,3.0,99,0.00,,,-99.99,,2013-07-15 11:32:00,
2013-07-15 06:42:00,64.0,64.0,-100.00,North,355,2.0,2.0,99,0.00,,,-99.99,,2013-07-15 11:42:00,
2013-07-15 06:52:00,64.0,64.0,-100.00,North,355,2.0,2.0,99,0.00,,,-99.99,,2013-07-15 11:52:00,
2013-07-15 07:01:00,64.0,64.0,-100.00,North,355,2.0,2.0,99,0.00,,,-99.99,,2013-07-15 12:01:00,
2013-07-15 07:11:00,65.0,65.0,-100.00,WNW,295,0.0,1.0,99,0.00,,,-99.99,,2013-07-15 12:11:00,
2013-07-15 07:22:00,65.0,65.0,-100.00,WNW,295,0.0,1.0,99,0.00,,,-99.99,,2013-07-15 12:22:00,
2013-07-15 07:32:00,66.0,66.0,-100.00,WSW,255,0.0,1.0,99,0.00,,,-99.99,,2013-07-15 12:32:00,
2013-07-15 07:42:00,67.0,67.0,-100.00,WSW,250,0.0,1.0,99,0.00,,,-99.99,,2013-07-15 12:42:00,
2013-07-15 08:01:00,68.0,68.0,-100.00,WNW,285,0.0,1.0,99,0.00,,,-99.99,,2013-07-15 13:01:00,
2013-07-15 08:22:00,71.0,71.0,-100.00,NE,35,0.0,1.0,99,0.00,,,-99.99,,2013-07-15 13:22:00,
2013-07-15 08:33:00,73.0,73.0,-100.00,SE,135,0.0,1.0,99,0.00,,,-99.99,,2013-07-15 13:33:00,
2013-07-15 08:43:00,76.0,76.0,-100.00,ESE,115,3.0,7.0,99,0.04,,,-99.99,,2013-07-15 13:43:00,
2013-07-15 09:11:00,78.0,78.0,-100.00,SE,130,2.0,6.0,99,0.00,,,-99.99,,2013-07-15 14:11:00,
2013-07-15 09:33:00,78.0,78.0,-100.00,ESE,115,5.0,7.0,99,0.00,,,-99.99,,2013-07-15 14:33:00,
2013-07-15 09:42:00,78.0,78.0,-100.00,ESE,115,5.0,7.0,99,0.00,,,-99.99,,2013-07-15 14:42:00,
2013-07-15 10:03:00,78.0,78.0,-100.00,SE,135,2.0,4.0,99,0.00,,,-99.99,,2013-07-15 15:03:00,
2013-07-15 10:17:00,78.0,78.0,-100.00,SE,145,1.0,3.0,99,0.00,,,-99.99,,2013-07-15 15:17:00,
2013-07-15 11:33:00,82.0,80.0,-100.00,SSW,200,3.0,8.0,92,0.00,,,-99.99,,2013-07-15 16:33:00,
2013-07-15 12:36:00,83.0,81.0,-100.00,SW,225,4.0,7.0,92,0.00,,,-99.99,,2013-07-15 17:36:00,
2013-07-15 12:48:00,83.0,80.0,-100.00,SW,225,5.0,7.0,90,0.00,,,-99.99,,2013-07-15 17:48:00,
2013-07-15 14:50:00,83.0,-99.9,-100.00,WNW,285,2.0,3.0,-999,0.00,,,-99.99,,2013-07-15 19:50:00,
2013-07-15 15:54:00,85.0,81.0,-100.00,SE,135,6.0,12.0,86,0.00,,,-99.99,,2013-07-15 20:54:00,
2013-07-15 16:02:00,85.0,81.0,-100.00,SE,135,6.0,12.0,86,0.00,,,-99.99,,2013-07-15 21:02:00,
2013-07-15 16:12:00,86.0,81.0,-100.00,SE,140,6.0,11.0,83,0.00,,,-99.99,,2013-07-15 21:12:00,
2013-07-15 16:23:00,86.0,81.0,-100.00,SE,140,6.0,11.0,83,0.00,,,-99.99,,2013-07-15 21:23:00,
2013-07-15 16:38:00,86.0,80.0,-100.00,SE,140,6.0,10.0,81,0.00,,,-99.99,,2013-07-15 21:38:00,
2013-07-15 21:11:00,79.0,79.0,-100.00,ESE,110,4.0,6.0,99,0.00,,,-99.99,,2013-07-16 02:11:00,
2013-07-15 21:35:00,80.0,80.0,-100.00,ESE,110,5.0,6.0,99,0.00,,,-99.99,,2013-07-16 02:35:00,
2013-07-15 21:48:00,80.0,80.0,-100.00,ESE,110,6.0,7.0,99,0.00,,,-99.99,,2013-07-16 02:48:00,
2013-07-15 21:54:00,80.0,80.0,-100.00,ESE,115,6.0,9.0,99,0.00,,,-99.99,,2013-07-16 02:54:00,
2013-07-15 22:07:00,80.0,80.0,-100.00,ESE,115,6.0,9.0,99,0.00,,,-99.99,,2013-07-16 03:07:00,
2013-07-15 22:17:00,79.0,-99.9,-100.00,ESE,120,6.0,8.0,-999,0.00,,,-99.99,,2013-07-16 03:17:00,
2013-07-15 22:47:00,78.0,78.0,-100.00,ESE,120,6.0,7.0,99,0.00,,,-99.99,,2013-07-16 03:47:00,
2013-07-15 22:56:00,77.0,77.0,-100.00,SE,145,2.0,4.0,99,0.00,,,-99.99,,2013-07-16 03:56:00,
2013-07-15 23:12:00,76.0,-99.9,-100.00,SE,135,2.0,4.0,-999,0.00,,,-99.99,,2013-07-16 04:12:00,
2013-07-15 23:32:00,76.0,76.0,-100.00,SE,125,1.0,1.0,99,0.00,,,-99.99,,2013-07-16 04:32:00,
2013-07-15 23:43:00,76.0,-99.9,-100.00,SE,130,3.0,4.0,-999,0.00,,,-99.99,,2013-07-16 04:43:00,